Regional Weather Roundup
Issued by NWS

Home | Current Version | Previous Version | Graphics & Text | Print | Product List | Glossary On
Versions: 1 2 3 4 5 6 7 8 9 10 11 12 13 14 15 16 17 18 19 20 21 22 23 24 25 26 27 28 29 30 31 32 33 34 35 36 37 38 39 40 41 42 43 44 45 46 47 48 49 50
000
ASUS43 KOAX 070810
RWRNE

WEATHER ROUNDUP FOR NEBRASKA
NATIONAL WEATHER SERVICE OMAHA NE
200 AM CST SUN FEB 07 2016

NOTES: SATELLITE DATA IS BEING USED TO AUGMENT CLOUD COVER ABOVE
       12000 FEET.
       "FAIR" INDICATES FEW OR NO CLOUDS BELOW 12,000 FEET WITH NO
       SIGNIFICANT WEATHER AND/OR OBSTRUCTIONS TO VISIBILITY.

  * THESE STATIONS DO NOT REPORT WEATHER SUCH AS RAIN...SNOW OR FOG.

NEZ001>004-019>022-054>056-070900-
NEBRASKA PANHANDLE

CITY           SKY/WX    TMP DP  RH WIND       PRES   REMARKS
SCOTTSBLUFF    CLEAR     29  20  69 NW10      30.14S WCI  20
ALLIANCE       CLEAR     22  16  78 W15       30.10R WCI   9
CHADRON        CLOUDY    35  21  56 W14       30.11S WCI  26
KIMBALL        CLEAR     30  22  72 NW9       30.13S WCI  22
SIDNEY         CLEAR     32  21  64 NW16      30.13F WCI  21
$$

NEZ057>060-069>072-079>082-070900-
SOUTHWEST NEBRASKA

CITY           SKY/WX    TMP DP  RH WIND       PRES   REMARKS
NORTH PLATTE   CLOUDY    32  24  72 NW13      30.07R WCI  22
IMPERIAL         N/A     33  24  69 NW9       30.11S WCI  25
LEXINGTON      CLOUDY    34  28  76 W12       30.06R WCI  26
MCCOOK         CLOUDY    36  27  69 W12       30.10S WCI  28
OGALLALA       CLOUDY    32  22  67 NW14      30.11S WCI  22
$$

NEZ005>010-023>029-035>040-094-070900-
NORTH CENTRAL NEBRASKA

CITY           SKY/WX    TMP DP  RH WIND       PRES   REMARKS
VALENTINE      PTCLDY    37  23  56 W14G22    30.02S WCI  28
AINSWORTH      CLEAR     37  24  59 W15       30.01S WCI  28
BROKEN BOW     CLEAR     36  26  67 NW20      30.01S WCI  25
O`NEILL        PTCLDY    40  25  56 W17       29.97R WCI  31
ORD            CLEAR     34  26  72 NW10      29.99S WCI  26
THEDFORD       CLOUDY    40  25  54 NW13G20   30.05S WCI  33
$$

NEZ041-046>049-061>064-073>077-083>087-070900-
SOUTH CENTRAL NEBRASKA

CITY           SKY/WX    TMP DP  RH WIND       PRES   REMARKS
GRAND ISLAND   CLOUDY    35  27  72 NW14      30.01R WCI  26
AURORA         CLOUDY    32  28  82 W13       29.99R WCI  23
HASTINGS       CLOUDY    35  27  72 NW16      30.01R WCI  25
HEBRON         CLOUDY    37  28  71 NW8       29.99F WCI  30
HOLDREGE       CLOUDY    36  28  72 W10       30.04S WCI  28
YORK           PTCLDY    34  28  80 NW15      29.97R WCI  24
$$

NEZ011>018-030>034-042>045-070900-
NORTHEAST NEBRASKA

CITY           SKY/WX    TMP DP  RH WIND       PRES   REMARKS
NORFOLK        CLEAR     34  25  69 W10       29.92R WCI  26
ALBION         CLEAR     36  25  64 NW10      29.96S WCI  28
BLAIR          CLOUDY    32  27  83 W8        29.90F WCI  25
COLUMBUS *     CLOUDY    34  21  60 W10       29.95R WCI  26
FREMONT        CLOUDY    30  24  79 W9        29.92S WCI  22
TEKAMAH        CLEAR     28  22  78 SW6       29.90F WCI  22
WAYNE          MOCLDY    38  29  69 NW10      29.90S WCI  31
$$

NEZ050>053-065>068-078-088>093-070900-
SOUTHEAST NEBRASKA

CITY           SKY/WX    TMP DP  RH WIND       PRES   REMARKS
LINCOLN        CLOUDY    32  26  78 S5        29.96F WCI  27
OMAHA EPPLEY   CLOUDY    36  27  69 S3        29.92F
BEATRICE       CLOUDY    34  29  81 W8        29.97S WCI  28
FALLS CITY     CLOUDY    38  27  64 SW13      29.96S WCI  30
NEBRASKA CITY  PTCLDY    34  28  76 W14       29.95S WCI  25
PLATTSMOUTH    CLOUDY    35  28  76 W6        29.93F WCI  30
$$

NEZ044-045-051>053-067-070900-
OMAHA AREA

CITY           SKY/WX    TMP DP  RH WIND       PRES   REMARKS
OMAHA EPPLEY   CLOUDY    36  27  69 S3        29.92F
BLAIR          CLOUDY    32  27  83 W8        29.90F WCI  25
FREMONT        CLOUDY    30  24  79 W9        29.92S WCI  22
MILLARD        CLOUDY    32  27  83 CALM      29.92F
OFFUTT AFB     CLOUDY    30  26  83 SW5       29.92F WCI  26
PLATTSMOUTH    CLOUDY    35  28  76 W6        29.93F WCI  30
WAHOO          FAIR      33  27  78 W8        29.93R WCI  26
$$



USA.gov is the U.S. government's official web portal to all federal, state and local government web resources and services.